Regional Weather Roundup
Issued by NWS

Home | Current Version | Previous Version | Text Only | Print | Product List | Glossary Off
Versions: 1 2 3 4 5 6 7 8 9 10 11 12 13 14 15 16 17 18 19 20 21 22 23 24 25 26 27 28 29 30 31 32 33 34 35 36 37 38 39 40 41 42 43 44 45 46 47 48 49 50

000
ASUS43 KIND 250009
RWRIN

WEATHER ROUNDUP FOR INDIANA
NATIONAL WEATHER SERVICE INDIANAPOLIS IN
800 PM EDT FRI APR 24 2015

NOTE: "FAIR" INDICATES FEW OR NO CLOUDS BELOW 12,000 FEET WITH NO
SIGNIFICANT WEATHER AND/OR OBSTRUCTIONS TO VISIBILITY.

* - STATION DOES NOT REPORT WEATHER SUCH AS PRECIPITATION OR FOG.

+ - STATION NOT QUALITY CONTROLLED BY THE NATIONAL WEATHER SERVICE.
    USE DATA WITH CAUTION...ESPECIALLY DEWPOINT AND RELATIVE
    HUMIDITY OBSERVATIONS.

INZ001>003-010>013-019-020-250100-
NORTHWEST INDIANA

CITY           SKY/WX    TMP DP  RH WIND       PRES   REMARKS
GARY /AIRPORT/ CLOUDY    48  23  37 E12G26    29.94R
KNOX *+        CLOUDY    59 -36   1 SE12      29.91S
LA PORTE +     CLOUDY    55  26  33 NE6       29.93S
6HR MIN TEMP:  55; 6HR MAX TEMP:  62;

MICHIGAN CITY+ CLOUDY    52  18  25 NE7       29.94R
MONTICELLO +   CLOUDY    58  31  35 S5        29.90F
6HR MIN TEMP:  58; 6HR MAX TEMP:  61;

RENSSELAER +   CLOUDY    59  27  29 SE6       29.91S
VALPARAISO     CLOUDY    55  26  32 NE9       29.92S
6HR MIN TEMP:  55; 6HR MAX TEMP:  63;


$$

LMZ046-743>745-250100-
SOUTHERN LAKE MICHIGAN

STATION/POSITION TIME  TEMP    WIND        PRES    WAVE
                       AIR SEA DIR/SP/G            HT
                 (UTC) (F)     (DEG/KT/KT) (MB)    (FT)
BURNS HARBOR     0000   48      60/ 17/ 21 1013.9S
MICHIGAN CITY    0000   47      30/ 18/ 21   N/A
5NW MICH CITY    0000   44 44   80/ 14/ 17   N/A     3

$$

INZ004-005-014>016-021>024-250100-
NORTH CENTRAL INDIANA

CITY           SKY/WX    TMP DP  RH WIND       PRES   REMARKS
ELKHART        CLOUDY    55  21  26 NE6       29.95S
GOSHEN         CLOUDY    56  29  35 E5        29.94F
6HR MIN TEMP:  56; 6HR MAX TEMP:  60;

LOGANSPORT +   CLOUDY    55  28  35 SE5       29.92F
PERU/GRISSOM   CLOUDY    57  31  37 SE6       29.91F
6HR MIN TEMP:  57; 6HR MAX TEMP:  61;

ROCHESTER +    MOCLDY    59  27  29 SE5       29.93F
SOUTH BEND     CLOUDY    55  25  31 NE10      29.95S
6HR MIN TEMP:  55; 6HR MAX TEMP:  61; 6HR PCP: TRACE;

WARSAW +       CLOUDY    57  23  26 SE3       29.94S

$$

INZ006>009-017-018-025>027-250100-
NORTHEAST INDIANA

CITY           SKY/WX    TMP DP  RH WIND       PRES   REMARKS
ANGOLA *+      CLOUDY    55  25  30 CALM      29.94F
AUBURN +       CLOUDY    57  21  24 CALM      29.96R
FORT WAYNE     MOCLDY    56  29  35 S5        29.96S
6HR MIN TEMP:  56; 6HR MAX TEMP:  60;

HUNTINGTON +   MOCLDY    56  23  27 S5        29.94F
6HR MIN TEMP:  56; 6HR MAX TEMP:  60;


$$

INZ028-029-035-036-043>045-051>053-250100-
WEST CENTRAL INDIANA

CITY           SKY/WX    TMP DP  RH WIND       PRES   REMARKS
CRAWFORDSVL +  CLOUDY    55  24  29 E8        29.90F
6HR MIN TEMP:  55; 6HR MAX TEMP:  59;

GREENCASTLE +  CLOUDY    55  28  35 SE5       29.91F
LAFAYETTE      CLOUDY    56  27  32 SE5       29.90F
6HR MIN TEMP:  56; 6HR MAX TEMP:  61;

TERRE HAUTE    LGT RAIN  59  35  40 CALM      29.91S
6HR MIN TEMP:  59; 6HR MAX TEMP:  62; 6HR PCP: TRACE;


$$

INZ030>032-037>040-046>048-054>057-064-065-250100-
CENTRAL INDIANA

CITY           SKY/WX    TMP DP  RH WIND       PRES   REMARKS
CP ATTERBURY + CLOUDY    57  28  33 SE5       29.94S
COLUMBUS       CLOUDY    57  25  28 SE6       29.94F
FRANKFORT +    CLOUDY    58  30  35 E6        29.92F
6HR MIN TEMP:  58; 6HR MAX TEMP:  62;

GREENWOOD *+   CLOUDY    57  21  24 SE6       29.93F
INDIANAPOLIS   CLOUDY    58  26  29 SE9       29.91F
6HR MIN TEMP:  58; 6HR MAX TEMP:  62;

-EAGLE CREEK   CLOUDY    58  24  27 SE9       29.91F
6HR MIN TEMP:  57; 6HR MAX TEMP:  61;

KOKOMO *+      CLOUDY    57  30  35 S9        29.92F
6HR MIN TEMP:  57; 6HR MAX TEMP:  61;

MARION +       CLOUDY    56  25  29 SE5       29.94F
MT COMFORT *+  CLOUDY    57  14  18 SE5       29.93F
SHELBYVILLE    CLOUDY    60  35  39 SE5       29.92F
6HR MIN TEMP:  59; 6HR MAX TEMP:  63;

ZIONSVILLE +   CLOUDY    59  25  27 SE7       29.92F
6HR MIN TEMP:  58; 6HR MAX TEMP:  61;


$$

INZ033-034-041-042-049-050-058-059-250100-
EAST CENTRAL INDIANA

CITY           SKY/WX    TMP DP  RH WIND       PRES   REMARKS
MUNCIE         CLOUDY    58  21  24 S5        29.94F
6HR MIN TEMP:  56; 6HR MAX TEMP:  61;


$$

INZ060-061-067>069-081>083-085>088-250100-
SOUTHWEST INDIANA

CITY           SKY/WX    TMP DP  RH WIND       PRES   REMARKS
EVANSVILLE     CLOUDY    62  30  29 S7        29.92F
6HR MIN TEMP:  60; 6HR MAX TEMP:  63;

HUNTINGBURG *+ CLOUDY    61  32  33 S6        29.92S
6HR MIN TEMP:  61; 6HR MAX TEMP:  64;

WASHINGTON +   CLOUDY    59  32  35 S5        29.90F
6HR MIN TEMP:  59; 6HR MAX TEMP:  64;


$$

INZ062-063-066-070>080-084-089>092-250100-
SOUTH CENTRAL AND SOUTHEAST INDIANA

CITY           SKY/WX    TMP DP  RH WIND       PRES   REMARKS
BEDFORD +      CLOUDY    61  23  23 SE5       29.92F
BLOOMINGTON    CLOUDY    60  26  27 SE6       29.91F
6HR MIN TEMP:  60; 6HR MAX TEMP:  65;

MADISON *+     CLOUDY    59  23  25 CALM      29.96F
NORTH VERNON + CLOUDY    59  23  25 SE5       29.94F
SEYMOUR +      CLOUDY    61  34  36 SE5       29.93F

$$




USA.gov is the U.S. government's official web portal to all federal, state and local government web resources and services.